Location: Brno
(49.2000°N, 16.6330°E)
Time: 21:03:09
(UTC+01:00)

Cosmos 2227 - Visible Passes

Search period start: 06 March 2015 00:00
Search period end: 16 March 2015 00:00
Orbit: 834 x 863 km, 71.0° (Epoch: 05 March)

Date Brightness Start Highest point End Pass type
(mag) Time Alt. Az. Time Alt. Az. Time Alt. Az.
06 Mar 5.8 02:24:13 31° NE 02:24:13 31° NE 02:27:13 10° NE visible
06 Mar 5.2 04:06:10 30° NW 04:06:14 30° NW 04:11:13 10° NNE visible
06 Mar 6.3 05:51:28 10° NNW 05:52:30 10° NNW 05:53:25 10° N visible
07 Mar 6.0 02:11:30 28° NE 02:11:30 28° NE 02:14:09 10° NE visible
07 Mar 5.2 03:53:26 31° NW 03:53:26 31° NW 03:58:10 10° NNE visible
07 Mar 6.3 05:38:18 10° NNW 05:39:26 10° NNW 05:40:26 10° N visible
08 Mar 6.1 01:58:44 25° NE 01:58:44 25° NE 02:01:06 10° NE visible
08 Mar 5.3 03:40:40 30° NW 03:40:40 30° NW 03:45:07 10° NNE visible
08 Mar 6.4 05:25:07 10° NNW 05:26:21 11° NNW 05:27:26 10° N visible
09 Mar 6.3 01:45:56 23° NE 01:45:56 23° NE 01:48:02 10° NE visible
09 Mar 5.4 03:27:53 30° NNW 03:27:53 30° NNW 03:32:03 10° NNE visible
09 Mar 6.4 05:11:57 10° NW 05:13:16 11° NNW 05:14:26 10° N visible
10 Mar 6.4 01:33:08 21° NE 01:33:08 21° NE 01:34:58 10° NE visible
10 Mar 5.5 03:15:04 29° NNW 03:15:04 29° NNW 03:19:00 10° NNE visible
10 Mar 6.4 04:58:48 10° NW 05:00:11 11° NNW 05:01:26 10° N visible
11 Mar 6.5 01:20:18 19° NE 01:20:18 19° NE 01:21:54 10° NE visible
11 Mar 5.6 03:02:14 29° NNW 03:02:14 29° NNW 03:05:57 10° NNE visible
11 Mar 6.4 04:45:38 10° NW 04:47:06 11° NNW 04:48:26 10° N visible
12 Mar 6.6 01:07:26 18° NE 01:07:26 18° NE 01:08:50 10° NE visible
12 Mar 5.7 02:49:23 28° NNW 02:49:23 28° NNW 02:52:54 10° NNE visible
12 Mar 6.4 04:32:29 10° NW 04:34:01 11° NNW 04:35:25 10° N visible
13 Mar 6.7 00:54:34 17° NE 00:54:34 17° NE 00:55:47 10° NE visible
13 Mar 5.8 02:36:30 27° NNW 02:36:30 27° NNW 02:39:51 10° NNE visible
13 Mar 6.4 04:19:20 10° NW 04:20:56 11° NNW 04:22:24 10° N visible
14 Mar 6.7 00:41:40 16° NE 00:41:40 16° NE 00:42:43 10° NE visible
14 Mar 5.8 02:23:36 26° NNW 02:23:36 26° NNW 02:26:48 10° NNE visible
14 Mar 6.5 04:06:12 10° NW 04:07:52 11° NNW 04:09:23 10° N visible
15 Mar 6.8 00:28:45 15° NE 00:28:45 15° NE 00:29:39 10° NE visible
15 Mar 5.9 02:10:41 26° N 02:10:41 26° N 02:13:45 10° NNE visible
15 Mar 6.5 03:53:03 10° NW 03:54:47 11° NNW 03:56:22 10° N visible
